Regional Weather Roundup
Issued by NWS Newport/Morehead, NC

Current Version | Previous Version | Graphics & Text | Print | Product List | Glossary Off
Versions: 1 2 3 4 5 6 7 8 9 10 11 12 13 14 15 16 17 18 19 20 21 22 23 24 25 26 27 28 29 30 31 32 33 34 35 36 37 38 39 40 41 42 43 44 45 46 47 48 49 50

000
ASUS42 KMHX 260414
RWRMHX
WEATHER ROUNDUP FOR EASTERN NORTH CAROLINA
NATIONAL WEATHER SERVICE NEWPORT/MOREHEAD CITY NC
1200 AM EDT MON JUN 26 2017

NOTE: "FAIR" INDICATES FEW OR NO CLOUDS BELOW 12,000 FEET
WITH NO SIGNIFICANT WEATHER AND/OR OBSTRUCTIONS TO VISIBILITY

NCZ015>017-031-032-045>047-102-103-260500-
NORTH COAST

CITY           SKY/WX    TMP DP  RH WIND       PRES   REMARKS
EDENTON        MOCLDY    77  64  65 CALM      30.06S
ELIZABETH CITY CLOUDY    75  66  73 NW9       30.04S
KITTY HAWK     CLOUDY    76  76  98 CALM      30.02F
MANTEO         CLOUDY    78  72  80 CALM      30.03F

$$

NCZ045>047-081-094-103-104-260500-
CENTRAL COAST

CITY           SKY/WX    TMP DP  RH WIND       PRES   REMARKS
FRISCO         MOCLDY    78  73  84 W6        30.03F

$$

NCZ095-097-098-100-101-260500-
SOUTHERN COAST

CITY           SKY/WX    TMP DP  RH WIND       PRES   REMARKS
BEAUFORT       CLOUDY    79  77  94 SW7       30.06R
CEDAR ISLAND   NOT AVBL
JACKSONVILLE   MOCLDY    75  75 100 SW9       30.06S
PINEY ISLAND   MOCLDY   N/A N/A N/A W5        30.05S
WILMINGTON     PTCLDY    73  70  90 NW3       30.07S


$$

NCZ011>013-027>030-043-044-078>080-089-090>093-098-260500-
COASTAL PLAIN

CITY           SKY/WX    TMP DP  RH WIND       PRES   REMARKS
AHOSKIE          N/A     70  65  85 CALM      30.07S
CLINTON        CLOUDY    72  71  95 CALM      30.09R
ELIZABETHTOWN  NOT AVBL
GOLDSBORO      CLOUDY    77  66  69 N6        30.06R
GREENVILLE     MOCLDY    77  64  65 CALM      30.08S
HAVELOCK       CLOUDY    75  71  87 SW6       30.07R
KENANSVILLE    CLOUDY    72  70  94 CALM      30.08S
KINSTON        CLOUDY    72  68  88 CALM      30.08R
NEW BERN       PTCLDY    74  74 100 S3        30.07S
RICHLANDS      NOT AVBL
ROCKY MOUNT    MOCLDY    71  64  78 CALM      30.08S
WASHINGTON     CLOUDY   N/A N/A N/A NW3       30.06S
WHITEVILLE     CLOUDY    73  72  96 CALM      30.08S

$$

AMZ130-135-150-152-154-156-158-170-250-252-270-ANZ085-086-088-633-658-670-260500-
MARINE OBSERVATIONS

STATION/POSITION TIME  TEMP    WIND        PRES    WAVE   SWELL
                       AIR SEA DIR/SP/G            HT/PER HT/PER
                 (UTC) (F)     (DEG/KT/KT) (MB)    (FT/S) (FT/S)
CHESAPEAKE LIGHT NOT AVBL
64 E VA BEACH    0350   74 75  250/  4/  4 1017.3    3/ 6   2/ 6
DUCK             0348   75 67  250/  3/  4 1016.7
2 E DUCK         NOT AVBL
OREGON INLET     0348          290/  7/  9 1016.8
13E OREGON INLT  0348      73                N/A     2/ 6   2/ 6
HATTERAS CG      0348   76 79  250/  6/  9 1016.9
DIAMOND BUOY     0350   78 80  250/ 12/ 14 1017.1    3/ 6   2/ 6
CAPE LOOKOUT     0400   78     250/  8/ 10 1017.5
BEAUFORT LAB     0348   77 78  250/  4/  8 1017.1
30 SE NEW RVR IN 0308   77 80  150/  6/ 10 1018.0
30 SE NEW RVR IN 0343      80                N/A     4/ 6
27 SE WRIGHTSVLE 0308   78 80  290/  4/  8 1017.5
5 SE WRIGHTSVLE  0308   76 79  310/  4/  8 1017.9
225 S CAPE HAT   0350   80 80  210/ 10/ 12 1019.7    4/ 6   3/ 6
41 SE CHARLESTON 0350   80 81  210/  8/ 10 1018.0    3/ 6   2/ 6

$$




USA.gov is the U.S. government's official web portal to all federal, state and local government web resources and services.